Location: Unspecified
(40.7945°N, 0.0000°E)
Time: 11:26:17
(UTC+00:00)

deb Explorer IX - Pass Details

Date: 26 June 2021
Orbit: 542 x 1095 km, 38.8° (Epoch: 27 July)

Event Time Altitude Azimuth Distance (km) Brightness Sun altitude
Exits shadow 02:56:01 19° 192° (SSW) 1,595 ? -14.3°
Maximum altitude 02:58:09 25° 155° (SSE) 1,284 ? -14.0°
Drops below altitude 10° 03:01:49 10° 99° (E) 1,937 ? -13.6°
Sets 03:04:17 0° 86° (E) 2,781 ? -13.3°
